DW2690 Weather Reports


time (UTC)temp
C
wind
direction
speed
KPH
gust
KPH
rain 1hr
cm
rain 24hr
cm
rain mn
cm
humidity
%
barometer
mb
20260505082327 12 238 0.0 6.4 0.00 0.00 0.00 85 1012.2
20260505081815 12 281 0.0 6.4 0.00 0.00 0.00 85 1012.1
20260505081343 12 311 1.6 8.0 0.00 0.00 0.00 85 1012.1
20260505080829 12 273 0.0 8.0 0.00 0.00 0.00 85 1012.0
20260505080317 13 220 1.6 3.2 0.00 0.00 0.00 85 1012.0
20260505075845 13 355 0.0 1.6 0.00 0.00 0.00 84 1012.0
20260505075316 13 355 0.0 1.6 0.00 0.00 0.00 84 1012.0
20260505074847 13 288 0.0 0.0 0.00 0.00 0.00 84 1011.9
20260505074313 13 288 0.0 1.6 0.00 0.00 0.00 84 1011.9
20260505063826 13 105 0.0 0.0 0.00 0.00 0.00 80 1011.3
20260505063315 13 105 0.0 0.0 0.00 0.00 0.00 80 1011.3
20260505062824 13 105 0.0 0.0 0.00 0.00 0.00 80 1011.2
20260505062332 13 105 0.0 0.0 0.00 0.00 0.00 79 1011.1
20260505061822 13 105 0.0 0.0 0.00 0.00 0.00 79 1011.1
20260505061315 13 105 0.0 0.0 0.00 0.00 0.00 78 1011.0
20260505060823 14 105 0.0 0.0 0.00 0.00 0.00 79 1011.1
20260505060352 14 105 0.0 0.0 0.00 0.00 0.00 77 1011.0
20260505055821 14 105 0.0 0.0 0.00 0.00 0.00 77 1011.0
20260505055329 14 105 0.0 0.0 0.00 0.00 0.00 77 1010.9
20260505054837 14 105 0.0 0.0 0.00 0.00 0.00 77 1010.9
20260505054326 14 105 0.0 0.0 0.00 0.00 0.00 77 1010.8
20260505053833 15 105 0.0 0.0 0.00 0.00 0.00 76 1010.8
20260505053341 15 105 0.0 0.0 0.00 0.00 0.00 75 1010.8
20260505052830 15 105 0.0 0.0 0.00 0.00 0.00 75 1010.8
20260505052316 15 105 0.0 0.0 0.00 0.00 0.00 75 1010.6
20260505051825 15 105 0.0 0.0 0.00 0.00 0.00 73 1010.5
20260505051317 15 105 0.0 0.0 0.00 0.00 0.00 73 1010.5
20260505050826 15 105 0.0 0.0 0.00 0.00 0.00 73 1010.5
20260505050315 15 105 0.0 0.0 0.00 0.00 0.00 72 1010.4
20260505041320 17 105 0.0 0.0 0.00 0.00 0.00 64 1010.0
20260505040827 17 105 0.0 0.0 0.00 0.00 0.00 64 1010.0
20260505040316 17 105 0.0 0.0 0.00 0.00 0.00 64 1009.8
20260505035827 18 105 0.0 0.0 0.00 0.00 0.00 62 1009.8
20260505035335 18 105 0.0 0.0 0.00 0.00 0.00 61 1009.7
20260505034841 18 105 0.0 0.0 0.00 0.00 0.00 61 1009.6
20260505034325 18 105 0.0 0.0 0.00 0.00 0.00 62 1009.6
20260505033832 18 105 0.0 0.0 0.00 0.00 0.00 61 1009.5
20260505033321 19 105 0.0 0.0 0.00 0.00 0.00 59 1009.5
20260505032815 19 105 0.0 0.0 0.00 0.00 0.00 63 1009.4
20260505032322 20 105 0.0 0.0 0.00 0.00 0.00 63 1009.4
20260505031830 20 105 0.0 0.0 0.00 0.00 0.00 58 1009.4
20260505031317 20 105 0.0 0.0 0.00 0.00 0.00 57 1009.4
20260505030826 20 105 0.0 0.0 0.00 0.00 0.00 57 1009.2
20260505030335 20 105 0.0 0.0 0.00 0.00 0.00 58 1009.2
20260505025842 21 105 0.0 0.0 0.00 0.00 0.00 57 1009.1
20260505025348 21 105 0.0 0.0 0.00 0.00 0.00 56 1009.0
20260505024814 21 105 0.0 0.0 0.00 0.00 0.00 55 1009.0
20260505024322 21 105 0.0 0.0 0.00 0.00 0.00 56 1008.9
20260505023830 21 105 0.0 0.0 0.00 0.00 0.00 55 1008.9
20260505023319 22 105 0.0 0.0 0.00 0.00 0.00 55 1008.9
20260505022833 22 105 0.0 1.6 0.00 0.00 0.00 53 1008.8
20260505022321 22 105 0.0 1.6 0.00 0.00 0.00 53 1008.8
20260505021828 22 293 0.0 1.6 0.00 0.00 0.00 49 1008.8
20260505021315 23 293 0.0 3.2 0.00 0.00 0.00 49 1008.7
20260505020825 23 238 0.0 3.2 0.00 0.00 0.00 45 1008.8
20260505020332 23 189 0.0 3.2 0.00 0.00 0.00 46 1008.8
20260505015819 23 264 0.0 1.6 0.00 0.00 0.00 45 1008.8
20260505015326 23 221 0.0 1.6 0.00 0.00 0.00 43 1008.8
20260505014814 23 217 0.0 1.6 0.00 0.00 0.00 44 1008.8
20260505014321 23 217 0.0 6.4 0.00 0.00 0.00 44 1008.8
20260505013829 23 321 3.2 6.4 0.00 0.00 0.00 40 1008.8
20260505013321 24 198 0.0 0.0 0.00 0.00 0.00 44 1008.8
20260505012830 24 198 0.0 8.0 0.00 0.00 0.00 44 1008.8
20260505012338 24 198 1.6 8.0 0.00 0.00 0.00 40 1008.9
20260505011827 25 155 1.6 8.0 0.00 0.00 0.00 40 1008.9
20260505011315 25 207 0.0 6.4 0.00 0.00 0.00 43 1008.9
20260505010824 25 229 1.6 3.2 0.00 0.00 0.00 40 1008.9
20260505010333 25 78 1.6 3.2 0.00 0.00 0.00 41 1008.8
20260505005822 25 304 0.0 9.7 0.00 0.00 0.00 37 1009.0
20260505005328 25 229 3.2 9.7 0.00 0.00 0.00 38 1009.0
20260505004816 25 206 1.6 8.0 0.00 0.00 0.00 38 1008.9
20260505004328 25 185 3.2 8.0 0.00 0.00 0.00 37 1008.9
20260505003816 25 303 0.0 9.7 0.00 0.00 0.00 39 1008.9
20260505003326 25 303 3.2 9.7 0.00 0.00 0.00 37 1008.9
20260505002814 26 324 0.0 6.4 0.00 0.00 0.00 37 1008.9
20260505002343 26 311 0.0 8.0 0.00 0.00 0.00 39 1008.9
20260505001830 26 213 1.6 8.0 0.00 0.00 0.00 38 1008.9
20260505001319 26 275 3.2 8.0 0.00 0.00 0.00 37 1008.9
20260505000822 26 214 1.6 8.0 0.00 0.00 0.00 38 1008.9
20260505000330 26 254 3.2 14.5 0.00 0.00 0.00 40 1008.9
20260504235820 26 248 8.0 14.5 0.00 0.00 0.00 39 1008.9
20260504235329 26 200 3.2 9.7 0.00 0.00 0.00 39 1009.0
20260504234820 26 169 3.2 9.7 0.00 0.00 0.00 39 1009.0
20260504234328 26 355 4.8 9.7 0.00 0.00 0.00 37 1009.1
20260504233815 27 198 1.6 8.0 0.00 0.00 0.00 37 1009.1
20260504233324 27 316 1.6 6.4 0.00 0.00 0.00 40 1009.1
20260504232833 27 219 1.6 11.3 0.00 0.00 0.00 38 1009.0
20260504232321 27 47 3.2 9.7 0.00 0.00 0.00 37 1009.1
20260504231827 27 303 1.6 6.4 0.00 0.00 0.00 37 1009.2
20260504231335 27 188 1.6 11.3 0.00 0.00 0.00 38 1009.1
20260504230842 27 329 1.6 11.3 0.00 0.00 0.00 40 1009.1
20260504230349 27 294 3.2 11.3 0.00 0.00 0.00 38 1009.2
20260504225838 27 43 1.6 11.3 0.00 0.00 0.00 38 1009.2
20260504225345 27 178 3.2 11.3 0.00 0.00 0.00 39 1009.2
20260504224831 27 231 3.2 8.0 0.00 0.00 0.00 37 1009.2
20260504224321 27 296 3.2 11.3 0.00 0.00 0.00 38 1009.2
20260504223825 27 54 3.2 11.3 0.00 0.00 0.00 37 1009.3
20260504223337 27 102 3.2 9.7 0.00 0.00 0.00 37 1009.4
20260504222826 27 288 1.6 6.4 0.00 0.00 0.00 41 1009.5
20260504222314 27 223 1.6 8.0 0.00 0.00 0.00 37 1009.5
20260504221824 27 214 3.2 14.5 0.00 0.00 0.00 40 1009.6
20260504221332 27 218 4.8 14.5 0.00 0.00 0.00 36 1009.7
20260504220820 27 21 0.0 6.4 0.00 0.00 0.00 37 1009.7
20260504220328 27 231 1.6 14.5 0.00 0.00 0.00 38 1009.8
20260504215816 27 227 3.2 14.5 0.00 0.00 0.00 37 1009.8
20260504215325 27 160 3.2 8.0 0.00 0.00 0.00 36 1009.9
20260504214817 27 346 4.8 8.0 0.00 0.00 0.00 35 1010.0
20260504214326 27 316 0.0 8.0 0.00 0.00 0.00 37 1009.9
20260504213814 26 266 3.2 8.0 0.00 0.00 0.00 37 1010.0
20260504213320 26 174 3.2 8.0 0.00 0.00 0.00 37 1010.0
20260504212829 27 225 3.2 12.9 0.00 0.00 0.00 33 1010.0
20260504212317 27 141 3.2 12.9 0.00 0.00 0.00 34 1010.1
20260504211825 27 249 4.8 11.3 0.00 0.00 0.00 32 1010.0
20260504211332 27 323 1.6 12.9 0.00 0.00 0.00 38 1010.1
20260504210843 27 217 3.2 14.5 0.00 0.00 0.00 33 1010.1
20260504210329 27 218 3.2 9.7 0.00 0.00 0.00 36 1010.1
20260504205822 27 232 1.6 8.0 0.00 0.00 0.00 37 1010.1
20260504205350 27 207 3.2 8.0 0.00 0.00 0.00 41 1010.1
20260504204817 26 240 1.6 14.5 0.00 0.00 0.00 35 1010.2
20260504204327 26 211 3.2 14.5 0.00 0.00 0.00 35 1010.2
20260504203815 26 310 1.6 6.4 0.00 0.00 0.00 37 1010.2
20260504203325 26 264 1.6 9.7 0.00 0.00 0.00 40 1010.2
20260504202814 26 217 1.6 9.7 0.00 0.00 0.00 36 1010.1
20260504202343 26 248 1.6 8.0 0.00 0.00 0.00 39 1010.2
20260504201829 26 217 1.6 8.0 0.00 0.00 0.00 38 1010.2
20260504201317 26 202 1.6 9.7 0.00 0.00 0.00 39 1010.2
20260504200824 26 134 1.6 9.7 0.00 0.00 0.00 37 1010.2
20260504200315 26 298 1.6 4.8 0.00 0.00 0.00 39 1010.2
20260504195846 26 335 1.6 8.0 0.00 0.00 0.00 43 1010.3
20260504195333 26 192 1.6 11.3 0.00 0.00 0.00 39 1010.3
20260504194820 26 249 3.2 11.3 0.00 0.00 0.00 38 1010.3
20260504194327 26 238 1.6 6.4 0.00 0.00 0.00 43 1010.2
20260504193835 25 223 0.0 6.4 0.00 0.00 0.00 43 1010.2
20260504193321 25 325 1.6 6.4 0.00 0.00 0.00 37 1010.2
20260504192829 25 187 1.6 8.0 0.00 0.00 0.00 39 1010.2
20260504192316 25 219 4.8 8.0 0.00 0.00 0.00 41 1010.3
20260504191826 25 9 1.6 4.8 0.00 0.00 0.00 42 1010.3
20260504191354 25 305 3.2 8.0 0.00 0.00 0.00 45 1010.4
20260504190825 25 198 0.0 9.7 0.00 0.00 0.00 45 1010.4
20260504190333 25 338 3.2 9.7 0.00 0.00 0.00 44 1010.4
20260504185822 25 150 4.8 9.7 0.00 0.00 0.00 41 1010.4
20260504185330 24 307 3.2 9.7 0.00 0.00 0.00 45 1010.5
20260504184817 24 319 1.6 9.7 0.00 0.00 0.00 43 1010.5
20260504184327 25 345 3.2 11.3 0.00 0.00 0.00 42 1010.6
20260504183813 25 264 0.0 6.4 0.00 0.00 0.00 43 1010.7
20260504183321 24 303 1.6 12.9 0.00 0.00 0.00 45 1010.5
20260504182830 24 258 6.4 12.9 0.00 0.00 0.00 40 1010.6
20260504182318 24 207 0.0 6.4 0.00 0.00 0.00 45 1010.6
20260504181846 23 247 0.0 11.3 0.00 0.00 0.00 52 1010.6
20260504181316 23 196 4.8 11.3 0.00 0.00 0.00 45 1010.6